This is the latest recevied weather packets stored in our database for station/object SP3VBV-2. If no packets are shown the sender has not sent any weather packets the latest 10 day(s).
| Time | Temp. | Humidity | Pressure | Rain* | Wind** | Luminosity | Snow |
|---|---|---|---|---|---|---|---|
| 1777741910 | 22.78° C | 36% | 1018.8 hPa | - | - | - | - |
| 1777741310 | 22.78° C | 35% | 1019 hPa | - | - | - | - |
| 1777740710 | 22.78° C | 37% | 1019 hPa | - | - | - | - |
| 1777740110 | 23.33° C | 32% | 1019 hPa | - | - | - | - |
| 1777739510 | 26.11° C | 30% | 1019.1 hPa | - | - | - | - |
| 1777738318 | 25.56° C | 32% | 1019.2 hPa | - | - | - | - |
| 1777737117 | 23.33° C | 34% | 1019.6 hPa | - | - | - | - |
| 1777736517 | 23.33° C | 34% | 1019.8 hPa | - | - | - | - |
| 1777735917 | 23.33° C | 34% | 1019.8 hPa | - | - | - | - |
| 1777735317 | 22.78° C | 30% | 1020 hPa | - | - | - | - |
| 1777734717 | 23.89° C | 35% | 1020 hPa | - | - | - | - |
| 1777734117 | 23.89° C | 31% | 1020.2 hPa | - | - | - | - |
| 1777733517 | 22.78° C | 33% | 1020.3 hPa | - | - | - | - |
| 1777732917 | 23.33° C | 32% | 1020.4 hPa | - | - | - | - |
| 1777732317 | 22.78° C | 34% | 1020.4 hPa | - | - | - | - |
| 1777731717 | 23.33° C | 34% | 1020.5 hPa | - | - | - | - |
| 1777731117 | 23.33° C | 34% | 1020.6 hPa | - | - | - | - |
| 1777730517 | 23.33° C | 36% | 1020.7 hPa | - | - | - | - |
| 1777729917 | 23.33° C | 38% | 1020.8 hPa | - | - | - | - |
| 1777729317 | 23.33° C | 36% | 1020.7 hPa | - | - | - | - |
| 1777728717 | 23.33° C | 36% | 1020.9 hPa | - | - | - | - |
| 1777728117 | 22.78° C | 38% | 1021 hPa | - | - | - | - |
| 1777727517 | 22.78° C | 36% | 1021.2 hPa | - | - | - | - |
| 1777726917 | 22.22° C | 34% | 1021.4 hPa | - | - | - | - |
| 1777726317 | 22.78° C | 34% | 1021.6 hPa | - | - | - | - |
* Rain since midnight (hover to see other rain measurements)
** Current wind speed in m/s (hover to see current wind gust speed)